Time,TemperatureF,DewpointF,PressureIn,WindDirection,WindDirectionDegrees,WindSpeedMPH,WindSpeedGustMPH,Humidity,HourlyPrecipIn,Conditions,Clouds,dailyrainin,SoftwareType,DateUTC
2013-02-09 00:00:00,30.7,27.0,30.26,NNW,327,3.0,7.0,86,0.00,,,0.00,WUHU216DAVISVP2,2013-02-09 06:00:00,
2013-02-09 00:05:00,30.6,26.9,30.26,NW,316,6.0,8.0,86,0.00,,,0.00,WUHU216DAVISVP2,2013-02-09 06:05:00,
2013-02-09 00:10:00,30.7,27.0,30.26,NW,308,7.0,10.0,86,0.00,,,0.00,WUHU216DAVISVP2,2013-02-09 06:10:00,
2013-02-09 00:15:00,30.8,27.1,30.26,NW,309,7.0,12.0,86,0.00,,,0.00,WUHU216DAVISVP2,2013-02-09 06:15:00,
2013-02-09 00:20:00,30.8,27.1,30.26,NW,314,5.0,12.0,86,0.00,,,0.00,WUHU216DAVISVP2,2013-02-09 06:20:00,
2013-02-09 00:25:00,30.9,27.2,30.26,NW,326,8.0,12.0,86,0.00,,,0.00,WUHU216DAVISVP2,2013-02-09 06:25:00,
2013-02-09 00:30:00,30.9,27.2,30.26,NW,319,6.0,12.0,86,0.00,,,0.00,WUHU216DAVISVP2,2013-02-09 06:30:00,
2013-02-09 00:35:00,30.9,27.2,30.27,NW,319,6.0,14.0,86,0.00,,,0.00,WUHU216DAVISVP2,2013-02-09 06:35:00,
2013-02-09 00:40:00,31.0,27.3,30.26,NW,316,9.0,14.0,86,0.00,,,0.00,WUHU216DAVISVP2,2013-02-09 06:40:00,
2013-02-09 00:45:00,30.9,27.2,30.26,NW,313,9.0,14.0,86,0.00,,,0.00,WUHU216DAVISVP2,2013-02-09 06:45:00,
2013-02-09 00:50:00,30.9,27.2,30.26,WNW,300,7.0,14.0,86,0.00,,,0.00,WUHU216DAVISVP2,2013-02-09 06:50:00,
2013-02-09 00:55:00,30.9,27.2,30.25,NW,305,11.0,13.0,86,0.00,,,0.00,WUHU216DAVISVP2,2013-02-09 06:55:00,
2013-02-09 01:00:00,30.8,27.1,30.26,NNW,335,6.0,13.0,86,0.00,,,0.00,WUHU216DAVISVP2,2013-02-09 07:00:00,
2013-02-09 01:05:00,30.7,27.0,30.26,NW,318,9.0,13.0,86,0.00,,,0.00,WUHU216DAVISVP2,2013-02-09 07:05:00,
2013-02-09 01:10:00,30.7,27.0,30.26,WNW,299,12.0,13.0,86,0.00,,,0.00,WUHU216DAVISVP2,2013-02-09 07:10:00,
2013-02-09 01:15:00,30.6,26.9,30.26,NW,320,8.0,13.0,86,0.00,,,0.00,WUHU216DAVISVP2,2013-02-09 07:15:00,
2013-02-09 01:20:00,30.6,26.9,30.26,NW,314,8.0,13.0,86,0.00,,,0.00,WUHU216DAVISVP2,2013-02-09 07:20:00,
2013-02-09 01:25:00,30.5,27.1,30.26,NW,325,10.0,16.0,87,0.00,,,0.00,WUHU216DAVISVP2,2013-02-09 07:25:00,
2013-02-09 01:30:00,30.5,27.1,30.26,WNW,295,6.0,16.0,87,0.00,,,0.00,WUHU216DAVISVP2,2013-02-09 07:30:00,
2013-02-09 01:35:00,30.5,27.1,30.26,NW,321,12.0,16.0,87,0.00,,,0.00,WUHU216DAVISVP2,2013-02-09 07:35:00,
2013-02-09 01:40:00,30.4,27.0,30.26,NNW,343,15.0,15.0,87,0.00,,,0.00,WUHU216DAVISVP2,2013-02-09 07:40:00,
2013-02-09 01:45:00,30.4,27.0,30.26,NW,310,9.0,16.0,87,0.00,,,0.00,WUHU216DAVISVP2,2013-02-09 07:45:00,
2013-02-09 01:50:00,30.4,27.0,30.26,NNW,329,10.0,16.0,87,0.00,,,0.00,WUHU216DAVISVP2,2013-02-09 07:50:00,
2013-02-09 01:55:00,30.4,27.3,30.26,NW,308,11.0,16.0,88,0.00,,,0.00,WUHU216DAVISVP2,2013-02-09 07:55:00,
2013-02-09 02:00:00,30.6,27.4,30.26,NNW,347,9.0,16.0,88,0.00,,,0.00,WUHU216DAVISVP2,2013-02-09 08:00:00,
2013-02-09 02:05:00,30.6,27.4,30.26,NW,324,6.0,18.0,88,0.00,,,0.00,WUHU216DAVISVP2,2013-02-09 08:05:00,
2013-02-09 02:10:00,30.7,27.5,30.27,NNW,337,11.0,18.0,88,0.00,,,0.00,WUHU216DAVISVP2,2013-02-09 08:10:00,
2013-02-09 02:15:00,30.8,27.6,30.27,NNW,337,5.0,18.0,88,0.00,,,0.00,WUHU216DAVISVP2,2013-02-09 08:15:00,
2013-02-09 02:20:00,30.9,28.0,30.26,North,358,9.0,18.0,89,0.00,,,0.00,WUHU216DAVISVP2,2013-02-09 08:20:00,
2013-02-09 02:25:00,30.9,28.0,30.26,North,352,8.0,16.0,89,0.00,,,0.00,WUHU216DAVISVP2,2013-02-09 08:25:00,
2013-02-09 02:30:00,30.9,28.0,30.27,NW,326,10.0,16.0,89,0.00,,,0.00,WUHU216DAVISVP2,2013-02-09 08:30:00,
2013-02-09 02:35:00,31.0,28.1,30.27,NNW,328,11.0,17.0,89,0.00,,,0.00,WUHU216DAVISVP2,2013-02-09 08:35:00,
2013-02-09 02:40:00,31.0,28.1,30.27,NNW,341,5.0,17.0,89,0.00,,,0.00,WUHU216DAVISVP2,2013-02-09 08:40:00,
2013-02-09 02:45:00,31.2,28.2,30.27,NW,326,9.0,17.0,89,0.00,,,0.00,WUHU216DAVISVP2,2013-02-09 08:45:00,
2013-02-09 02:50:00,31.2,28.3,30.27,NW,318,7.0,14.0,89,0.00,,,0.00,WUHU216DAVISVP2,2013-02-09 08:50:00,
2013-02-09 02:55:00,31.2,28.3,30.27,NW,322,6.0,14.0,89,0.00,,,0.00,WUHU216DAVISVP2,2013-02-09 08:55:00,
2013-02-09 03:00:00,31.2,28.3,30.27,NNW,332,10.0,14.0,89,0.00,,,0.00,WUHU216DAVISVP2,2013-02-09 09:00:00,
2013-02-09 03:05:00,31.2,28.3,30.27,NW,314,9.0,14.0,89,0.00,,,0.00,WUHU216DAVISVP2,2013-02-09 09:05:00,
2013-02-09 03:10:00,31.2,28.3,30.27,NNW,332,6.0,13.0,89,0.00,,,0.00,WUHU216DAVISVP2,2013-02-09 09:10:00,
2013-02-09 03:16:00,31.3,28.3,30.27,NNW,332,9.0,13.0,89,0.00,,,0.00,WUHU216DAVISVP2,2013-02-09 09:16:00,
2013-02-09 03:21:00,31.3,28.4,30.27,NW,322,10.0,13.0,89,0.00,,,0.00,WUHU216DAVISVP2,2013-02-09 09:21:00,
2013-02-09 03:26:00,31.4,28.5,30.26,NW,326,6.0,15.0,89,0.00,,,0.00,WUHU216DAVISVP2,2013-02-09 09:26:00,
2013-02-09 03:31:00,31.4,28.8,30.26,NW,315,12.0,15.0,90,0.00,,,0.00,WUHU216DAVISVP2,2013-02-09 09:31:00,
2013-02-09 03:36:00,31.4,28.8,30.26,NW,317,7.0,15.0,90,0.00,,,0.00,WUHU216DAVISVP2,2013-02-09 09:36:00,
2013-02-09 03:41:00,31.5,28.8,30.26,NW,306,5.0,14.0,90,0.00,,,0.00,WUHU216DAVISVP2,2013-02-09 09:41:00,
2013-02-09 03:46:00,31.5,28.8,30.26,NW,314,10.0,15.0,90,0.00,,,0.00,WUHU216DAVISVP2,2013-02-09 09:46:00,
2013-02-09 03:51:00,31.5,28.9,30.25,NNW,331,8.0,15.0,90,0.00,,,0.00,WUHU216DAVISVP2,2013-02-09 09:51:00,
2013-02-09 03:56:00,31.6,29.0,30.25,NNW,331,8.0,15.0,90,0.00,,,0.00,WUHU216DAVISVP2,2013-02-09 09:56:00,
2013-02-09 04:01:00,31.6,29.0,30.25,NW,317,8.0,15.0,90,0.00,,,0.00,WUHU216DAVISVP2,2013-02-09 10:01:00,
2013-02-09 04:06:00,31.7,29.0,30.25,NNW,345,8.0,18.0,90,0.00,,,0.00,WUHU216DAVISVP2,2013-02-09 10:06:00,
2013-02-09 04:11:00,31.7,29.0,30.25,NW,326,8.0,18.0,90,0.00,,,0.00,WUHU216DAVISVP2,2013-02-09 10:11:00,
2013-02-09 04:17:00,31.7,29.1,30.25,NNW,336,6.0,18.0,90,0.00,,,0.00,WUHU216DAVISVP2,2013-02-09 10:17:00,
2013-02-09 04:23:00,31.8,29.1,30.25,NW,314,7.0,15.0,90,0.00,,,0.00,WUHU216DAVISVP2,2013-02-09 10:23:00,
2013-02-09 04:28:00,31.8,29.1,30.25,NW,304,7.0,15.0,90,0.00,,,0.00,WUHU216DAVISVP2,2013-02-09 10:28:00,
2013-02-09 04:33:00,31.7,29.1,30.25,NNW,327,10.0,16.0,90,0.00,,,0.00,WUHU216DAVISVP2,2013-02-09 10:33:00,
2013-02-09 04:38:00,31.6,29.0,30.25,NNW,333,13.0,16.0,90,0.00,,,0.00,WUHU216DAVISVP2,2013-02-09 10:38:00,
2013-02-09 04:43:00,31.7,29.0,30.25,NNW,342,13.0,16.0,90,0.00,,,0.00,WUHU216DAVISVP2,2013-02-09 10:43:00,
2013-02-09 04:48:00,31.6,28.9,30.25,NW,326,9.0,16.0,90,0.00,,,0.00,WUHU216DAVISVP2,2013-02-09 10:48:00,
2013-02-09 04:53:00,31.5,28.9,30.25,NNW,339,12.0,16.0,90,0.00,,,0.00,WUHU216DAVISVP2,2013-02-09 10:53:00,
2013-02-09 04:58:00,31.5,28.9,30.25,NW,324,9.0,16.0,90,0.00,,,0.00,WUHU216DAVISVP2,2013-02-09 10:58:00,
2013-02-09 05:03:00,31.5,29.1,30.25,NW,304,9.0,19.0,91,0.00,,,0.00,WUHU216DAVISVP2,2013-02-09 11:03:00,
2013-02-09 05:08:00,31.5,29.1,30.25,NW,320,13.0,19.0,91,0.00,,,0.00,WUHU216DAVISVP2,2013-02-09 11:08:00,
2013-02-09 05:13:00,31.5,29.2,30.26,NNW,339,15.0,19.0,91,0.00,,,0.00,WUHU216DAVISVP2,2013-02-09 11:13:00,
2013-02-09 05:18:00,31.6,29.2,30.25,NNW,344,10.0,19.0,91,0.00,,,0.00,WUHU216DAVISVP2,2013-02-09 11:18:00,
2013-02-09 05:23:00,31.7,29.3,30.25,NNW,337,6.0,18.0,91,0.00,,,0.00,WUHU216DAVISVP2,2013-02-09 11:23:00,
2013-02-09 05:28:00,31.7,29.1,30.25,NW,319,9.0,18.0,90,0.00,,,0.00,WUHU216DAVISVP2,2013-02-09 11:28:00,
2013-02-09 05:33:00,31.8,29.1,30.25,NNW,329,7.0,16.0,90,0.00,,,0.00,WUHU216DAVISVP2,2013-02-09 11:33:00,
2013-02-09 05:38:00,31.6,28.7,30.25,NNW,329,10.0,16.0,89,0.00,,,0.00,WUHU216DAVISVP2,2013-02-09 11:38:00,
2013-02-09 05:43:00,31.5,28.6,30.24,NW,310,10.0,18.0,89,0.00,,,0.00,WUHU216DAVISVP2,2013-02-09 11:43:00,
2013-02-09 05:48:00,31.6,28.6,30.25,North,355,8.0,18.0,89,0.00,,,0.00,WUHU216DAVISVP2,2013-02-09 11:48:00,
2013-02-09 05:53:00,31.6,28.7,30.24,NNW,333,4.0,18.0,89,0.00,,,0.00,WUHU216DAVISVP2,2013-02-09 11:53:00,
2013-02-09 05:58:00,31.6,28.7,30.23,NNW,342,8.0,18.0,89,0.00,,,0.00,WUHU216DAVISVP2,2013-02-09 11:58:00,
2013-02-09 06:03:00,31.7,28.7,30.24,NW,304,9.0,17.0,89,0.00,,,0.00,WUHU216DAVISVP2,2013-02-09 12:03:00,
2013-02-09 06:08:00,31.7,28.8,30.24,NW,311,5.0,17.0,89,0.00,,,0.00,WUHU216DAVISVP2,2013-02-09 12:08:00,
2013-02-09 06:13:00,31.7,28.8,30.24,NW,314,7.0,17.0,89,0.00,,,0.00,WUHU216DAVISVP2,2013-02-09 12:13:00,
2013-02-09 06:18:00,31.8,28.8,30.24,NW,310,8.0,17.0,89,0.00,,,0.00,WUHU216DAVISVP2,2013-02-09 12:18:00,
2013-02-09 06:23:00,31.8,28.9,30.24,NW,309,6.0,13.0,89,0.00,,,0.00,WUHU216DAVISVP2,2013-02-09 12:23:00,
2013-02-09 06:28:00,31.8,28.9,30.24,NW,326,15.0,16.0,89,0.00,,,0.00,WUHU216DAVISVP2,2013-02-09 12:28:00,
2013-02-09 06:33:00,31.9,28.9,30.24,NNW,345,8.0,16.0,89,0.00,,,0.00,WUHU216DAVISVP2,2013-02-09 12:33:00,
2013-02-09 06:38:00,31.9,29.0,30.24,NNW,331,7.0,16.0,89,0.00,,,0.00,WUHU216DAVISVP2,2013-02-09 12:38:00,
2013-02-09 06:43:00,31.8,28.6,30.24,NNW,338,9.0,16.0,88,0.00,,,0.00,WUHU216DAVISVP2,2013-02-09 12:43:00,
2013-02-09 06:48:00,31.8,28.6,30.23,NNW,329,15.0,17.0,88,0.00,,,0.00,WUHU216DAVISVP2,2013-02-09 12:48:00,
2013-02-09 06:53:00,31.7,28.2,30.23,NW,314,9.0,21.0,87,0.00,,,0.00,WUHU216DAVISVP2,2013-02-09 12:53:00,
2013-02-09 06:58:00,31.6,28.2,30.23,NW,323,13.0,21.0,87,0.00,,,0.00,WUHU216DAVISVP2,2013-02-09 12:58:00,
2013-02-09 07:03:00,31.8,28.3,30.24,NW,320,12.0,21.0,87,0.00,,,0.00,WUHU216DAVISVP2,2013-02-09 13:03:00,
2013-02-09 07:08:00,31.7,28.3,30.24,North,358,15.0,23.0,87,0.00,,,0.00,WUHU216DAVISVP2,2013-02-09 13:08:00,
2013-02-09 07:13:00,31.8,28.3,30.25,NNW,339,16.0,23.0,87,0.00,,,0.00,WUHU216DAVISVP2,2013-02-09 13:13:00,
2013-02-09 07:18:00,31.8,28.3,30.25,NNW,335,7.0,23.0,87,0.00,,,0.00,WUHU216DAVISVP2,2013-02-09 13:18:00,
2013-02-09 07:23:00,31.8,28.4,30.25,NNW,329,9.0,23.0,87,0.00,,,0.00,WUHU216DAVISVP2,2013-02-09 13:23:00,
2013-02-09 07:28:00,32.0,28.5,30.25,NNW,344,10.0,20.0,87,0.00,,,0.00,WUHU216DAVISVP2,2013-02-09 13:28:00,
2013-02-09 07:33:00,32.0,28.5,30.26,NW,325,8.0,18.0,87,0.00,,,0.00,WUHU216DAVISVP2,2013-02-09 13:33:00,
2013-02-09 07:38:00,32.0,28.6,30.26,NW,320,10.0,17.0,87,0.00,,,0.00,WUHU216DAVISVP2,2013-02-09 13:38:00,
2013-02-09 07:43:00,32.2,28.7,30.25,NNW,336,13.0,17.0,87,0.00,,,0.00,WUHU216DAVISVP2,2013-02-09 13:43:00,
2013-02-09 07:48:00,32.3,28.8,30.25,NW,313,8.0,17.0,87,0.00,,,0.00,WUHU216DAVISVP2,2013-02-09 13:48:00,
2013-02-09 07:53:00,32.4,28.6,30.25,North,349,12.0,18.0,86,0.00,,,0.00,WUHU216DAVISVP2,2013-02-09 13:53:00,
2013-02-09 07:58:00,32.4,28.9,30.25,NNW,343,11.0,20.0,87,0.00,,,0.00,WUHU216DAVISVP2,2013-02-09 13:58:00,
2013-02-09 08:03:00,32.5,29.0,30.25,North,351,14.0,20.0,87,0.00,,,0.00,WUHU216DAVISVP2,2013-02-09 14:03:00,
2013-02-09 08:10:00,32.4,28.9,30.24,NNW,345,13.0,20.0,87,0.00,,,0.00,WUHU216DAVISVP2,2013-02-09 14:10:00,
2013-02-09 08:15:00,32.3,28.6,30.25,NNW,344,11.0,20.0,86,0.00,,,0.00,WUHU216DAVISVP2,2013-02-09 14:15:00,
2013-02-09 08:20:00,32.2,28.4,30.24,NNW,338,15.0,20.0,86,0.00,,,0.00,WUHU216DAVISVP2,2013-02-09 14:20:00,
2013-02-09 08:25:00,32.0,28.3,30.24,NNW,339,10.0,21.0,86,0.00,,,0.00,WUHU216DAVISVP2,2013-02-09 14:25:00,
2013-02-09 08:30:00,32.0,28.2,30.24,NNW,328,16.0,21.0,86,0.00,,,0.00,WUHU216DAVISVP2,2013-02-09 14:30:00,
2013-02-09 08:35:00,31.8,28.1,30.24,NW,320,15.0,22.0,86,0.00,,,0.00,WUHU216DAVISVP2,2013-02-09 14:35:00,
2013-02-09 08:40:00,31.7,28.0,30.23,NW,325,16.0,22.0,86,0.00,,,0.00,WUHU216DAVISVP2,2013-02-09 14:40:00,
2013-02-09 08:45:00,31.6,27.9,30.23,NNW,342,11.0,22.0,86,0.00,,,0.00,WUHU216DAVISVP2,2013-02-09 14:45:00,
2013-02-09 08:50:00,31.6,27.9,30.23,NNW,328,16.0,22.0,86,0.00,,,0.00,WUHU216DAVISVP2,2013-02-09 14:50:00,
2013-02-09 08:55:00,31.6,27.6,30.23,NNW,333,10.0,21.0,85,0.00,,,0.00,WUHU216DAVISVP2,2013-02-09 14:55:00,
2013-02-09 09:00:00,31.4,27.4,30.23,NNW,331,12.0,22.0,85,0.00,,,0.00,WUHU216DAVISVP2,2013-02-09 15:00:00,
2013-02-09 09:05:00,31.3,27.3,30.23,North,4,12.0,22.0,85,0.00,,,0.00,WUHU216DAVISVP2,2013-02-09 15:05:00,
2013-02-09 09:10:00,31.1,27.1,30.23,NNW,328,15.0,22.0,85,0.00,,,0.00,WUHU216DAVISVP2,2013-02-09 15:10:00,
2013-02-09 09:15:00,31.0,27.0,30.24,NNW,333,9.0,22.0,85,0.00,,,0.00,WUHU216DAVISVP2,2013-02-09 15:15:00,
2013-02-09 09:20:00,31.0,26.9,30.23,NW,318,11.0,21.0,85,0.00,,,0.00,WUHU216DAVISVP2,2013-02-09 15:20:00,
2013-02-09 09:25:00,31.0,27.0,30.23,NNW,332,15.0,20.0,85,0.00,,,0.00,WUHU216DAVISVP2,2013-02-09 15:25:00,
2013-02-09 09:30:00,31.0,27.0,30.23,NNW,334,10.0,20.0,85,0.00,,,0.00,WUHU216DAVISVP2,2013-02-09 15:30:00,
2013-02-09 09:35:00,31.0,27.0,30.22,NNW,334,6.0,22.0,85,0.00,,,0.00,WUHU216DAVISVP2,2013-02-09 15:35:00,
2013-02-09 09:40:00,31.1,26.8,30.23,North,3,10.0,22.0,84,0.00,,,0.00,WUHU216DAVISVP2,2013-02-09 15:40:00,
2013-02-09 09:45:00,31.1,26.8,30.23,NNW,328,17.0,23.0,84,0.00,,,0.00,WUHU216DAVISVP2,2013-02-09 15:45:00,
2013-02-09 09:50:00,30.9,26.6,30.23,NNW,344,13.0,23.0,84,0.00,,,0.00,WUHU216DAVISVP2,2013-02-09 15:50:00,
2013-02-09 09:55:00,30.9,26.6,30.23,NNW,339,12.0,23.0,84,0.00,,,0.00,WUHU216DAVISVP2,2013-02-09 15:55:00,
2013-02-09 10:00:00,30.9,26.3,30.23,North,353,10.0,23.0,83,0.00,,,0.00,WUHU216DAVISVP2,2013-02-09 16:00:00,
2013-02-09 10:05:00,30.9,26.4,30.22,NW,311,12.0,21.0,83,0.00,,,0.00,WUHU216DAVISVP2,2013-02-09 16:05:00,
2013-02-09 10:10:00,31.3,26.7,30.22,NNW,348,17.0,18.0,83,0.00,,,0.00,WUHU216DAVISVP2,2013-02-09 16:10:00,
2013-02-09 10:15:00,31.6,26.7,30.22,NNW,331,7.0,18.0,82,0.00,,,0.00,WUHU216DAVISVP2,2013-02-09 16:15:00,
2013-02-09 10:20:00,31.7,26.5,30.22,NNW,338,14.0,18.0,81,0.00,,,0.00,WUHU216DAVISVP2,2013-02-09 16:20:00,
2013-02-09 10:25:00,31.8,26.6,30.22,NNW,347,15.0,20.0,81,0.00,,,0.00,WUHU216DAVISVP2,2013-02-09 16:25:00,
2013-02-09 10:30:00,31.9,26.7,30.22,NNW,343,8.0,20.0,81,0.00,,,0.00,WUHU216DAVISVP2,2013-02-09 16:30:00,
2013-02-09 10:35:00,31.8,26.4,30.21,NNW,327,10.0,20.0,80,0.00,,,0.00,WUHU216DAVISVP2,2013-02-09 16:35:00,
2013-02-09 10:40:00,31.8,26.4,30.21,NW,316,12.0,21.0,80,0.00,,,0.00,WUHU216DAVISVP2,2013-02-09 16:40:00,
2013-02-09 10:45:00,31.9,26.5,30.21,NNW,335,13.0,21.0,80,0.00,,,0.00,WUHU216DAVISVP2,2013-02-09 16:45:00,
2013-02-09 10:50:00,32.4,26.7,30.21,NW,321,12.0,21.0,79,0.00,,,0.00,WUHU216DAVISVP2,2013-02-09 16:50:00,
2013-02-09 10:55:00,32.2,26.2,30.21,NNW,339,10.0,21.0,78,0.00,,,0.00,WUHU216DAVISVP2,2013-02-09 16:55:00,
2013-02-09 11:00:00,32.2,26.5,30.21,North,350,17.0,21.0,79,0.00,,,0.00,WUHU216DAVISVP2,2013-02-09 17:00:00,
2013-02-09 11:05:00,32.2,25.8,30.21,North,353,13.0,22.0,77,0.00,,,0.00,WUHU216DAVISVP2,2013-02-09 17:05:00,
2013-02-09 11:10:00,32.3,26.5,30.20,NNW,339,10.0,22.0,79,0.00,,,0.00,WUHU216DAVISVP2,2013-02-09 17:10:00,
2013-02-09 11:15:00,32.5,26.7,30.19,NNW,339,5.0,22.0,79,0.00,,,0.00,WUHU216DAVISVP2,2013-02-09 17:15:00,
2013-02-09 11:20:00,33.1,26.7,30.20,North,349,15.0,22.0,77,0.00,,,0.00,WUHU216DAVISVP2,2013-02-09 17:20:00,
2013-02-09 11:26:00,33.6,27.2,30.19,NNW,331,10.0,20.0,77,0.00,,,0.00,WUHU216DAVISVP2,2013-02-09 17:26:00,
2013-02-09 11:31:00,33.7,26.4,30.19,North,351,22.0,25.0,74,0.00,,,0.00,WUHU216DAVISVP2,2013-02-09 17:31:00,
2013-02-09 11:36:00,32.9,25.9,30.18,NW,316,22.0,25.0,75,0.00,,,0.00,WUHU216DAVISVP2,2013-02-09 17:36:00,
2013-02-09 11:41:00,32.8,26.1,30.18,North,351,12.0,25.0,76,0.00,,,0.00,WUHU216DAVISVP2,2013-02-09 17:41:00,
2013-02-09 11:46:00,33.0,26.3,30.18,North,358,16.0,25.0,76,0.00,,,0.00,WUHU216DAVISVP2,2013-02-09 17:46:00,
2013-02-09 11:51:00,32.9,26.2,30.18,NNW,342,13.0,24.0,76,0.00,,,0.00,WUHU216DAVISVP2,2013-02-09 17:51:00,
2013-02-09 11:56:00,32.6,25.6,30.17,WNW,300,6.0,19.0,75,0.00,,,0.00,WUHU216DAVISVP2,2013-02-09 17:56:00,
2013-02-09 12:01:00,32.3,25.6,30.17,NW,307,7.0,22.0,76,0.00,,,0.00,WUHU216DAVISVP2,2013-02-09 18:01:00,
2013-02-09 12:06:00,32.1,25.1,30.17,NNW,331,13.0,23.0,75,0.00,,,0.00,WUHU216DAVISVP2,2013-02-09 18:06:00,
2013-02-09 12:11:00,32.2,25.2,30.16,NW,322,16.0,23.0,75,0.00,,,0.00,WUHU216DAVISVP2,2013-02-09 18:11:00,
2013-02-09 12:16:00,32.5,25.8,30.16,North,349,12.0,23.0,76,0.00,,,0.00,WUHU216DAVISVP2,2013-02-09 18:16:00,
2013-02-09 12:21:00,32.8,26.4,30.15,NW,318,15.0,22.0,77,0.00,,,0.00,WUHU216DAVISVP2,2013-02-09 18:21:00,
2013-02-09 12:26:00,33.4,26.4,30.15,NW,320,12.0,21.0,75,0.00,,,0.00,WUHU216DAVISVP2,2013-02-09 18:26:00,
2013-02-09 12:31:00,34.0,26.3,30.14,NNW,343,13.0,22.0,73,0.00,,,0.00,WUHU216DAVISVP2,2013-02-09 18:31:00,
2013-02-09 12:36:00,33.9,25.9,30.14,NNW,345,9.0,22.0,72,0.00,,,0.00,WUHU216DAVISVP2,2013-02-09 18:36:00,
2013-02-09 12:41:00,33.7,25.4,30.13,NW,307,13.0,22.0,71,0.00,,,0.00,WUHU216DAVISVP2,2013-02-09 18:41:00,
2013-02-09 12:46:00,33.6,25.3,30.13,NNW,341,16.0,22.0,71,0.00,,,0.00,WUHU216DAVISVP2,2013-02-09 18:46:00,
2013-02-09 12:51:00,33.9,25.2,30.12,North,355,9.0,21.0,70,0.00,,,0.00,WUHU216DAVISVP2,2013-02-09 18:51:00,
2013-02-09 12:56:00,34.1,25.4,30.12,WNW,299,13.0,20.0,70,0.00,,,0.00,WUHU216DAVISVP2,2013-02-09 18:56:00,
2013-02-09 13:01:00,33.9,25.6,30.12,NNW,348,7.0,20.0,71,0.00,,,0.00,WUHU216DAVISVP2,2013-02-09 19:01:00,
2013-02-09 13:06:00,33.8,25.8,30.11,North,10,11.0,20.0,72,0.00,,,0.00,WUHU216DAVISVP2,2013-02-09 19:06:00,
2013-02-09 13:11:00,33.8,25.8,30.11,NNW,333,13.0,20.0,72,0.00,,,0.00,WUHU216DAVISVP2,2013-02-09 19:11:00,
2013-02-09 13:16:00,33.6,25.6,30.10,NNW,335,17.0,18.0,72,0.00,,,0.00,WUHU216DAVISVP2,2013-02-09 19:16:00,
2013-02-09 13:21:00,33.3,25.0,30.10,NW,322,11.0,21.0,71,0.00,,,0.00,WUHU216DAVISVP2,2013-02-09 19:21:00,
2013-02-09 13:26:00,33.4,25.4,30.10,NW,321,10.0,21.0,72,0.00,,,0.00,WUHU216DAVISVP2,2013-02-09 19:26:00,
2013-02-09 13:31:00,33.7,25.7,30.10,NNW,342,12.0,21.0,72,0.00,,,0.00,WUHU216DAVISVP2,2013-02-09 19:31:00,
2013-02-09 13:36:00,33.7,25.7,30.09,North,353,9.0,21.0,72,0.00,,,0.00,WUHU216DAVISVP2,2013-02-09 19:36:00,
2013-02-09 13:41:00,33.8,25.8,30.10,NNW,334,9.0,19.0,72,0.00,,,0.00,WUHU216DAVISVP2,2013-02-09 19:41:00,
2013-02-09 13:46:00,33.9,25.9,30.09,NW,315,9.0,18.0,72,0.00,,,0.00,WUHU216DAVISVP2,2013-02-09 19:46:00,
2013-02-09 13:52:00,33.9,25.6,30.08,NNW,335,10.0,21.0,71,0.00,,,0.00,WUHU216DAVISVP2,2013-02-09 19:52:00,
2013-02-09 13:57:00,33.8,25.4,30.08,North,357,15.0,21.0,71,0.00,,,0.00,WUHU216DAVISVP2,2013-02-09 19:57:00,
2013-02-09 14:02:00,33.8,25.5,30.07,NNW,347,10.0,21.0,71,0.00,,,0.00,WUHU216DAVISVP2,2013-02-09 20:02:00,
2013-02-09 14:07:00,34.1,25.7,30.08,North,357,16.0,21.0,71,0.00,,,0.00,WUHU216DAVISVP2,2013-02-09 20:07:00,
2013-02-09 14:12:00,34.3,26.0,30.08,NW,310,13.0,21.0,71,0.00,,,0.00,WUHU216DAVISVP2,2013-02-09 20:12:00,
2013-02-09 14:17:00,34.6,26.2,30.07,North,349,10.0,21.0,71,0.00,,,0.00,WUHU216DAVISVP2,2013-02-09 20:17:00,
2013-02-09 14:22:00,34.7,26.0,30.07,NNW,333,9.0,21.0,70,0.00,,,0.00,WUHU216DAVISVP2,2013-02-09 20:22:00,
2013-02-09 14:27:00,34.7,26.0,30.07,NW,315,9.0,17.0,70,0.00,,,0.00,WUHU216DAVISVP2,2013-02-09 20:27:00,
2013-02-09 14:32:00,34.8,26.4,30.07,NNW,336,13.0,16.0,71,0.00,,,0.00,WUHU216DAVISVP2,2013-02-09 20:32:00,
2013-02-09 14:37:00,35.0,26.2,30.06,NNW,341,8.0,16.0,70,0.00,,,0.00,WUHU216DAVISVP2,2013-02-09 20:37:00,
2013-02-09 14:42:00,35.0,26.3,30.06,NNW,342,9.0,16.0,70,0.00,,,0.00,WUHU216DAVISVP2,2013-02-09 20:42:00,
2013-02-09 14:47:00,35.1,26.4,30.07,NNE,15,12.0,17.0,70,0.00,,,0.00,WUHU216DAVISVP2,2013-02-09 20:47:00,
2013-02-09 14:52:00,35.0,25.9,30.06,NNW,347,10.0,19.0,69,0.00,,,0.00,WUHU216DAVISVP2,2013-02-09 20:52:00,
2013-02-09 14:57:00,35.0,25.9,30.06,NW,326,11.0,19.0,69,0.00,,,0.00,WUHU216DAVISVP2,2013-02-09 20:57:00,
2013-02-09 15:02:00,35.0,26.3,30.06,North,10,7.0,19.0,70,0.00,,,0.00,WUHU216DAVISVP2,2013-02-09 21:02:00,
2013-02-09 15:07:00,35.1,26.4,30.05,NNW,345,8.0,19.0,70,0.00,,,0.00,WUHU216DAVISVP2,2013-02-09 21:07:00,
2013-02-09 15:12:00,35.2,26.8,30.05,NNW,328,12.0,18.0,71,0.00,,,0.00,WUHU216DAVISVP2,2013-02-09 21:12:00,
2013-02-09 15:17:00,35.1,26.7,30.05,NW,316,14.0,18.0,71,0.00,,,0.00,WUHU216DAVISVP2,2013-02-09 21:17:00,
2013-02-09 15:22:00,34.9,26.8,30.06,NNW,337,8.0,18.0,72,0.00,,,0.00,WUHU216DAVISVP2,2013-02-09 21:22:00,
2013-02-09 15:27:00,35.0,26.9,30.06,NNW,340,9.0,18.0,72,0.00,,,0.00,WUHU216DAVISVP2,2013-02-09 21:27:00,
2013-02-09 15:32:00,35.0,27.0,30.05,North,349,6.0,18.0,72,0.00,,,0.00,WUHU216DAVISVP2,2013-02-09 21:32:00,
2013-02-09 15:37:00,35.0,27.0,30.05,North,3,11.0,18.0,72,0.00,,,0.00,WUHU216DAVISVP2,2013-02-09 21:37:00,
2013-02-09 15:42:00,35.1,27.1,30.05,NW,314,8.0,17.0,72,0.00,,,0.00,WUHU216DAVISVP2,2013-02-09 21:42:00,
2013-02-09 15:47:00,35.1,27.0,30.05,NW,324,15.0,19.0,72,0.00,,,0.00,WUHU216DAVISVP2,2013-02-09 21:47:00,
2013-02-09 15:52:00,34.9,27.2,30.04,NNW,341,7.0,19.0,73,0.00,,,0.00,WUHU216DAVISVP2,2013-02-09 21:52:00,
2013-02-09 15:57:00,34.9,27.2,30.04,NNW,336,13.0,20.0,73,0.00,,,0.00,WUHU216DAVISVP2,2013-02-09 21:57:00,
2013-02-09 16:02:00,35.0,27.3,30.03,NW,310,9.0,20.0,73,0.00,,,0.00,WUHU216DAVISVP2,2013-02-09 22:02:00,
2013-02-09 16:07:00,35.1,27.3,30.04,NW,312,8.0,20.0,73,0.00,,,0.00,WUHU216DAVISVP2,2013-02-09 22:07:00,
2013-02-09 16:13:00,35.2,27.5,30.04,North,351,9.0,20.0,73,0.00,,,0.00,WUHU216DAVISVP2,2013-02-09 22:13:00,
2013-02-09 16:18:00,35.4,27.9,30.04,NNW,340,9.0,19.0,74,0.00,,,0.00,WUHU216DAVISVP2,2013-02-09 22:18:00,
2013-02-09 16:23:00,35.6,28.2,30.04,NNW,329,9.0,18.0,74,0.00,,,0.00,WUHU216DAVISVP2,2013-02-09 22:23:00,
2013-02-09 16:28:00,35.7,28.3,30.05,NNW,339,11.0,17.0,74,0.00,,,0.00,WUHU216DAVISVP2,2013-02-09 22:28:00,
2013-02-09 16:33:00,36.0,28.5,30.05,NNW,333,9.0,17.0,74,0.00,,,0.00,WUHU216DAVISVP2,2013-02-09 22:33:00,
2013-02-09 16:38:00,36.2,28.8,30.05,NNW,341,14.0,15.0,74,0.00,,,0.00,WUHU216DAVISVP2,2013-02-09 22:38:00,
2013-02-09 16:43:00,36.3,29.1,30.05,NNW,344,7.0,15.0,75,0.00,,,0.00,WUHU216DAVISVP2,2013-02-09 22:43:00,
2013-02-09 16:48:00,36.3,29.8,30.05,NNW,331,8.0,14.0,77,0.00,,,0.00,WUHU216DAVISVP2,2013-02-09 22:48:00,
2013-02-09 16:53:00,36.3,29.8,30.05,North,349,9.0,15.0,77,0.00,,,0.00,WUHU216DAVISVP2,2013-02-09 22:53:00,
2013-02-09 16:58:00,36.3,30.4,30.05,NNW,329,10.0,15.0,79,0.00,,,0.00,WUHU216DAVISVP2,2013-02-09 22:58:00,
2013-02-09 17:03:00,36.3,30.7,30.05,NW,311,14.0,19.0,80,0.00,,,0.00,WUHU216DAVISVP2,2013-02-09 23:03:00,
2013-02-09 17:08:00,36.2,30.6,30.05,North,352,7.0,19.0,80,0.00,,,0.00,WUHU216DAVISVP2,2013-02-09 23:08:00,
2013-02-09 17:13:00,36.3,31.0,30.05,North,353,10.0,19.0,81,0.00,,,0.00,WUHU216DAVISVP2,2013-02-09 23:13:00,
2013-02-09 17:18:00,36.4,31.1,30.05,NNW,332,11.0,20.0,81,0.00,,,0.00,WUHU216DAVISVP2,2013-02-09 23:18:00,
2013-02-09 17:23:00,36.3,31.6,30.05,NW,324,12.0,20.0,83,0.01,,,0.01,WUHU216DAVISVP2,2013-02-09 23:23:00,
2013-02-09 17:28:00,36.1,31.7,30.05,NNW,335,15.0,20.0,84,0.01,,,0.01,WUHU216DAVISVP2,2013-02-09 23:28:00,
2013-02-09 17:33:00,36.0,32.2,30.03,NNW,335,9.0,20.0,86,0.02,,,0.02,WUHU216DAVISVP2,2013-02-09 23:33:00,
2013-02-09 17:38:00,35.9,32.1,30.02,NNW,339,15.0,22.0,86,0.02,,,0.02,WUHU216DAVISVP2,2013-02-09 23:38:00,
2013-02-09 17:43:00,36.0,32.2,30.01,WNW,295,15.0,22.0,86,0.03,,,0.03,WUHU216DAVISVP2,2013-02-09 23:43:00,
2013-02-09 17:48:00,36.0,32.5,30.01,NW,317,15.0,22.0,87,0.03,,,0.03,WUHU216DAVISVP2,2013-02-09 23:48:00,
2013-02-09 17:53:00,36.1,32.8,30.00,NW,320,14.0,22.0,88,0.04,,,0.04,WUHU216DAVISVP2,2013-02-09 23:53:00,
2013-02-09 17:58:00,36.2,32.9,30.01,NW,316,10.0,21.0,88,0.04,,,0.04,WUHU216DAVISVP2,2013-02-09 23:58:00,
2013-02-09 18:03:00,36.3,33.0,30.02,NW,323,11.0,21.0,88,0.04,,,0.04,WUHU216DAVISVP2,2013-02-10 00:03:00,
2013-02-09 18:08:00,36.1,32.9,30.01,North,349,11.0,20.0,88,0.04,,,0.04,WUHU216DAVISVP2,2013-02-10 00:08:00,
2013-02-09 18:13:00,36.2,32.9,30.02,NNW,340,8.0,20.0,88,0.04,,,0.04,WUHU216DAVISVP2,2013-02-10 00:13:00,
2013-02-09 18:18:00,36.2,33.2,30.01,NNW,331,13.0,17.0,89,0.04,,,0.04,WUHU216DAVISVP2,2013-02-10 00:18:00,
2013-02-09 18:23:00,36.2,33.3,30.00,NNW,345,12.0,17.0,89,0.03,,,0.04,WUHU216DAVISVP2,2013-02-10 00:23:00,
2013-02-09 18:28:00,36.3,33.0,29.99,NW,320,16.0,17.0,88,0.03,,,0.04,WUHU216DAVISVP2,2013-02-10 00:28:00,
2013-02-09 18:33:00,36.2,33.3,30.00,NW,323,17.0,19.0,89,0.02,,,0.04,WUHU216DAVISVP2,2013-02-10 00:33:00,
2013-02-09 18:38:00,36.2,33.0,30.01,NNW,341,12.0,20.0,88,0.02,,,0.04,WUHU216DAVISVP2,2013-02-10 00:38:00,
2013-02-09 18:43:00,36.2,32.9,30.01,NNW,335,8.0,20.0,88,0.01,,,0.04,WUHU216DAVISVP2,2013-02-10 00:43:00,
2013-02-09 18:48:00,36.2,33.3,30.00,NW,307,14.0,20.0,89,0.02,,,0.05,WUHU216DAVISVP2,2013-02-10 00:48:00,
2013-02-09 18:53:00,36.2,33.2,29.99,NNW,328,12.0,19.0,89,0.01,,,0.05,WUHU216DAVISVP2,2013-02-10 00:53:00,
2013-02-09 18:58:00,36.1,33.1,29.97,NNW,329,14.0,19.0,89,0.02,,,0.06,WUHU216DAVISVP2,2013-02-10 00:58:00,
2013-02-09 19:05:00,35.9,32.9,29.96,NNW,341,10.0,21.0,89,0.02,,,0.06,WUHU216DAVISVP2,2013-02-10 01:05:00,
2013-02-09 19:10:00,35.9,33.2,29.96,NNW,336,11.0,24.0,90,0.03,,,0.07,WUHU216DAVISVP2,2013-02-10 01:10:00,
2013-02-09 19:15:00,35.7,33.1,29.96,NW,314,16.0,24.0,90,0.03,,,0.07,WUHU216DAVISVP2,2013-02-10 01:15:00,
2013-02-09 19:20:00,35.6,32.9,29.96,NNW,331,7.0,24.0,90,0.03,,,0.07,WUHU216DAVISVP2,2013-02-10 01:20:00,
2013-02-09 19:25:00,35.7,33.0,29.96,North,349,12.0,22.0,90,0.03,,,0.07,WUHU216DAVISVP2,2013-02-10 01:25:00,
2013-02-09 19:30:00,35.6,32.9,29.95,NW,314,13.0,22.0,90,0.03,,,0.07,WUHU216DAVISVP2,2013-02-10 01:30:00,
2013-02-09 19:35:00,35.6,32.9,29.95,NNW,331,14.0,22.0,90,0.03,,,0.07,WUHU216DAVISVP2,2013-02-10 01:35:00,
2013-02-09 19:40:00,35.7,33.0,29.95,NW,324,16.0,24.0,90,0.03,,,0.07,WUHU216DAVISVP2,2013-02-10 01:40:00,
2013-02-09 19:45:00,35.7,32.8,29.95,NNW,327,14.0,24.0,89,0.02,,,0.07,WUHU216DAVISVP2,2013-02-10 01:45:00,
2013-02-09 19:50:00,35.7,32.7,29.95,NW,313,17.0,24.0,89,0.02,,,0.07,WUHU216DAVISVP2,2013-02-10 01:50:00,
2013-02-09 19:55:00,35.8,32.8,29.97,North,351,9.0,24.0,89,0.02,,,0.07,WUHU216DAVISVP2,2013-02-10 01:55:00,
2013-02-09 20:00:00,35.8,32.9,29.98,North,351,6.0,19.0,89,0.01,,,0.07,WUHU216DAVISVP2,2013-02-10 02:00:00,
2013-02-09 20:05:00,35.9,32.9,29.99,NNW,342,6.0,19.0,89,0.01,,,0.07,WUHU216DAVISVP2,2013-02-10 02:05:00,
2013-02-09 20:10:00,35.9,32.6,30.01,NNE,15,6.0,17.0,88,0.00,,,0.07,WUHU216DAVISVP2,2013-02-10 02:10:00,
2013-02-09 20:15:00,35.9,33.0,30.00,NNW,348,12.0,16.0,89,0.00,,,0.07,WUHU216DAVISVP2,2013-02-10 02:15:00,
2013-02-09 20:20:00,35.9,32.9,29.98,NW,322,11.0,17.0,89,0.00,,,0.07,WUHU216DAVISVP2,2013-02-10 02:20:00,
2013-02-09 20:25:00,35.9,32.9,29.97,NW,323,15.0,22.0,89,0.00,,,0.07,WUHU216DAVISVP2,2013-02-10 02:25:00,
2013-02-09 20:30:00,35.7,32.8,29.96,NW,304,16.0,22.0,89,0.00,,,0.07,WUHU216DAVISVP2,2013-02-10 02:30:00,
2013-02-09 20:35:00,35.8,32.8,29.97,NW,320,14.0,22.0,89,0.00,,,0.07,WUHU216DAVISVP2,2013-02-10 02:35:00,
2013-02-09 20:40:00,35.8,32.8,29.97,NNW,333,14.0,22.0,89,0.00,,,0.07,WUHU216DAVISVP2,2013-02-10 02:40:00,
2013-02-09 20:45:00,35.7,32.8,29.97,NW,326,12.0,21.0,89,0.00,,,0.07,WUHU216DAVISVP2,2013-02-10 02:45:00,
2013-02-09 20:50:00,35.7,32.7,29.96,NNW,329,12.0,18.0,89,0.00,,,0.07,WUHU216DAVISVP2,2013-02-10 02:50:00,
2013-02-09 20:55:00,35.6,32.6,29.95,NW,314,12.0,19.0,89,0.00,,,0.07,WUHU216DAVISVP2,2013-02-10 02:55:00,
2013-02-09 21:00:00,35.5,32.6,29.96,NW,313,16.0,22.0,89,0.00,,,0.07,WUHU216DAVISVP2,2013-02-10 03:00:00,
2013-02-09 21:05:00,35.5,32.8,29.97,NNW,345,9.0,22.0,90,0.00,,,0.07,WUHU216DAVISVP2,2013-02-10 03:05:00,
2013-02-09 21:10:00,35.5,32.8,29.97,NW,310,10.0,22.0,90,0.00,,,0.07,WUHU216DAVISVP2,2013-02-10 03:10:00,
2013-02-09 21:15:00,35.5,32.8,29.99,North,351,8.0,22.0,90,0.00,,,0.07,WUHU216DAVISVP2,2013-02-10 03:15:00,
2013-02-09 21:20:00,35.4,32.7,29.98,NNW,336,11.0,17.0,90,0.00,,,0.07,WUHU216DAVISVP2,2013-02-10 03:20:00,
2013-02-09 21:25:00,35.4,32.7,29.98,NNW,338,8.0,17.0,90,0.00,,,0.07,WUHU216DAVISVP2,2013-02-10 03:25:00,
2013-02-09 21:30:00,35.4,33.0,29.97,NW,314,15.0,20.0,91,0.00,,,0.07,WUHU216DAVISVP2,2013-02-10 03:30:00,
2013-02-09 21:35:00,35.5,33.0,29.97,NW,316,13.0,20.0,91,0.01,,,0.08,WUHU216DAVISVP2,2013-02-10 03:35:00,
2013-02-09 21:40:00,35.4,33.0,29.98,NNW,338,12.0,20.0,91,0.01,,,0.08,WUHU216DAVISVP2,2013-02-10 03:40:00,
2013-02-09 21:45:00,35.5,32.8,29.97,NNW,339,12.0,20.0,90,0.01,,,0.08,WUHU216DAVISVP2,2013-02-10 03:45:00,
2013-02-09 21:50:00,35.5,32.8,29.96,NW,323,12.0,19.0,90,0.01,,,0.08,WUHU216DAVISVP2,2013-02-10 03:50:00,
2013-02-09 21:55:00,35.5,32.8,29.94,NNW,327,15.0,21.0,90,0.01,,,0.08,WUHU216DAVISVP2,2013-02-10 03:55:00,
2013-02-09 22:00:00,35.4,33.0,29.95,NW,304,14.0,21.0,91,0.02,,,0.09,WUHU216DAVISVP2,2013-02-10 04:00:00,
2013-02-09 22:05:00,35.4,33.0,29.94,NNW,331,8.0,21.0,91,0.02,,,0.09,WUHU216DAVISVP2,2013-02-10 04:05:00,
2013-02-09 22:10:00,35.4,33.0,29.94,NNW,341,11.0,19.0,91,0.02,,,0.09,WUHU216DAVISVP2,2013-02-10 04:10:00,
2013-02-09 22:16:00,35.3,32.9,29.93,NW,318,13.0,20.0,91,0.02,,,0.09,WUHU216DAVISVP2,2013-02-10 04:16:00,
2013-02-09 22:21:00,35.2,32.8,29.94,NW,321,14.0,20.0,91,0.03,,,0.10,WUHU216DAVISVP2,2013-02-10 04:21:00,
2013-02-09 22:26:00,35.2,33.1,29.93,NW,311,18.0,24.0,92,0.03,,,0.10,WUHU216DAVISVP2,2013-02-10 04:26:00,
2013-02-09 22:31:00,35.2,33.1,29.93,NW,322,12.0,24.0,92,0.03,,,0.10,WUHU216DAVISVP2,2013-02-10 04:31:00,
2013-02-09 22:36:00,35.2,33.0,29.93,NW,313,18.0,24.0,92,0.03,,,0.11,WUHU216DAVISVP2,2013-02-10 04:36:00,
2013-02-09 22:41:00,35.3,33.1,29.94,NNW,342,12.0,24.0,92,0.03,,,0.11,WUHU216DAVISVP2,2013-02-10 04:41:00,
2013-02-09 22:46:00,35.1,33.0,29.93,NW,318,17.0,21.0,92,0.03,,,0.11,WUHU216DAVISVP2,2013-02-10 04:46:00,
2013-02-09 22:51:00,35.2,33.1,29.93,NNW,337,12.0,21.0,92,0.03,,,0.11,WUHU216DAVISVP2,2013-02-10 04:51:00,
2013-02-09 22:56:00,35.2,33.1,29.92,NNW,333,11.0,21.0,92,0.03,,,0.11,WUHU216DAVISVP2,2013-02-10 04:56:00,
2013-02-09 23:00:00,35.2,33.1,29.92,NW,318,12.0,21.0,92,0.02,,,0.11,WUHU216DAVISVP2,2013-02-10 05:00:00,
2013-02-09 23:05:00,35.3,33.1,29.92,NW,316,13.0,21.0,92,0.02,,,0.11,WUHU216DAVISVP2,2013-02-10 05:05:00,
2013-02-09 23:10:00,35.4,33.2,29.92,North,355,13.0,21.0,92,0.02,,,0.11,WUHU216DAVISVP2,2013-02-10 05:10:00,
2013-02-09 23:15:00,35.5,33.3,29.91,North,349,14.0,21.0,92,0.02,,,0.11,WUHU216DAVISVP2,2013-02-10 05:15:00,
2013-02-09 23:20:00,35.4,33.3,29.91,NW,321,10.0,23.0,92,0.01,,,0.11,WUHU216DAVISVP2,2013-02-10 05:20:00,
2013-02-09 23:25:00,35.5,33.4,29.91,NNW,336,13.0,23.0,92,0.01,,,0.11,WUHU216DAVISVP2,2013-02-10 05:25:00,
2013-02-09 23:30:00,35.6,33.5,29.91,NNW,346,23.0,24.0,92,0.01,,,0.11,WUHU216DAVISVP2,2013-02-10 05:30:00,
2013-02-09 23:35:00,35.8,33.7,29.91,NNW,327,17.0,24.0,92,0.00,,,0.11,WUHU216DAVISVP2,2013-02-10 05:35:00,
2013-02-09 23:40:00,35.8,33.6,29.91,NNW,345,20.0,24.0,92,0.00,,,0.11,WUHU216DAVISVP2,2013-02-10 05:40:00,
2013-02-09 23:45:00,35.9,33.7,29.91,NNW,335,15.0,24.0,92,0.01,,,0.12,WUHU216DAVISVP2,2013-02-10 05:45:00,
2013-02-09 23:50:00,36.0,33.5,29.91,NNW,333,20.0,24.0,91,0.01,,,0.12,WUHU216DAVISVP2,2013-02-10 05:50:00,
2013-02-09 23:56:00,36.0,33.5,29.91,NNW,342,17.0,24.0,91,0.01,,,0.12,WUHU216DAVISVP2,2013-02-10 05:56:00,